FW3692 Weather Reports


time (UTC)temp
C
wind
direction
speed
KPH
gust
KPH
rain 1hr
cm
rain 24hr
cm
rain mn
cm
humidity
%
barometer
mb
20260502114515 18 0 0.0 0.0 0.00 0.00 0.00 34 991.1
20260502113636 18 0 0.0 0.0 0.00 0.00 0.00 35 991.1
20260502112715 18 0 0.0 0.0 0.00 0.00 0.00 35 991.1
20260502110915 18 0 0.0 0.0 0.00 0.00 0.00 34 991.0
20260502105415 20 0 0.0 0.0 0.00 0.00 0.00 33 990.8
20260502100915 22 39 1.6 6.4 0.00 0.00 0.00 29 990.6
20260502090915 22 39 3.2 14.5 0.00 0.00 0.00 29 990.3
20260502070914 20 0 0.0 0.0 0.00 0.00 0.00 33 989.7
20260502064514 20 0 0.0 0.0 0.00 0.00 0.00 32 989.7
20260502063636 20 0 0.0 0.0 0.00 0.00 0.00 32 989.6
20260502062715 20 0 0.0 0.0 0.00 0.00 0.00 32 989.6
20260502061814 20 0 0.0 0.0 0.00 0.00 0.00 32 989.4
20260502060915 21 0 0.0 0.0 0.00 0.00 0.00 33 989.3
20260502055414 21 0 0.0 0.0 0.00 0.00 0.00 33 989.1
20260502051814 22 0 0.0 0.0 0.00 0.00 0.00 31 988.9
20260502050914 22 0 0.0 0.0 0.00 0.00 0.00 31 988.9
20260502043614 23 0 0.0 0.0 0.00 0.00 0.00 28 988.7
20260502042735 23 0 0.0 0.0 0.00 0.00 0.00 27 988.8
20260502041814 24 0 0.0 0.0 0.00 0.00 0.00 27 988.7
20260502040935 25 0 0.0 0.0 0.00 0.00 0.00 26 988.5
20260502040015 25 0 0.0 0.0 0.00 0.00 0.00 25 988.4
20260502033614 26 0 0.0 0.0 0.00 0.00 0.00 24 988.2
20260502030014 28 0 0.0 0.0 0.00 0.00 0.00 23 987.7
20260502025435 28 0 0.0 0.0 0.00 0.00 0.00 23 987.7
20260502024535 28 44 1.6 9.7 0.00 0.00 0.00 22 987.6
20260502023614 28 44 0.0 6.4 0.00 0.00 0.00 23 987.5
20260502022714 29 44 1.6 9.7 0.00 0.00 0.00 22 987.3
20260502020914 29 37 3.2 11.3 0.00 0.00 0.00 22 987.2
20260502020035 30 38 1.6 11.3 0.00 0.00 0.00 22 987.0
20260502015414 30 39 1.6 8.0 0.00 0.00 0.00 22 987.1
20260502014514 30 41 1.6 9.7 0.00 0.00 0.00 22 987.0
20260502013614 30 42 1.6 8.0 0.00 0.00 0.00 23 986.9
20260502004514 30 0 0.0 0.0 0.00 0.00 0.00 23 987.0
20260502002714 31 0 0.0 0.0 0.00 0.00 0.00 23 987.0
20260502001814 30 0 0.0 0.0 0.00 0.00 0.00 24 987.0
20260501235414 30 0 0.0 0.0 0.00 0.00 0.00 24 987.1
20260501234514 30 0 0.0 0.0 0.00 0.00 0.00 23 987.3
20260501233614 30 75 0.0 9.7 0.00 0.00 0.00 24 987.3
20260501232735 30 125 0.0 9.7 0.00 0.00 0.00 24 987.3
20260501231814 30 128 0.0 9.7 0.00 0.00 0.00 24 987.3
20260501224514 31 0 0.0 0.0 0.00 0.00 0.00 23 987.7
20260501223614 31 39 0.0 12.9 0.00 0.00 0.00 22 987.9
20260501221814 31 36 3.2 22.5 0.00 0.00 0.00 22 988.2
20260501215413 32 121 0.0 6.4 0.00 0.00 0.00 24 988.5
20260501213613 31 91 0.0 9.7 0.00 0.00 0.00 24 988.8
20260501211814 32 0 0.0 0.0 0.00 0.00 0.00 24 989.1
20260501205434 31 37 0.0 12.9 0.00 0.00 0.00 24 989.5
20260501204514 31 2 0.0 11.3 0.00 0.00 0.00 25 989.5
20260501203634 31 26 0.0 19.3 0.00 0.00 0.00 25 989.7
20260501202714 30 24 1.6 12.9 0.00 0.00 0.00 25 989.7
20260501200014 30 18 1.6 12.9 0.00 0.00 0.00 25 990.0
20260501192714 30 13 3.2 14.5 0.00 0.00 0.00 27 990.5
20260501185413 28 23 4.8 17.7 0.00 0.00 0.00 29 990.9
20260501184514 29 12 3.2 14.5 0.00 0.00 0.00 28 990.9
20260501182713 28 9 3.2 9.7 0.00 0.00 0.00 29 991.4
20260501181813 28 44 1.6 11.3 0.00 0.00 0.00 29 991.5
20260501180913 28 60 1.6 11.3 0.00 0.00 0.00 30 991.6
20260501175413 28 125 0.0 8.0 0.00 0.00 0.00 30 991.7
20260501170913 27 90 0.0 3.2 0.00 0.00 0.00 32 992.0
20260501164513 27 155 1.6 11.3 0.00 0.00 0.00 32 991.9
20260501163613 27 110 3.2 11.3 0.00 0.00 0.00 32 992.0
20260501160913 26 0 0.0 0.0 0.00 0.00 0.00 34 992.0
20260501155434 25 355 1.6 11.3 0.00 0.00 0.00 35 991.9
20260501153613 25 0 0.0 0.0 0.00 0.00 0.00 36 991.8
20260501152713 25 358 0.0 4.8 0.00 0.00 0.00 36 991.7
20260501150913 23 0 0.0 0.0 0.00 0.00 0.00 37 991.6
20260501145413 23 0 0.0 0.0 0.00 0.00 0.00 37 991.4
20260501144513 23 27 0.0 1.6 0.00 0.00 0.00 38 991.4
20260501143613 22 0 0.0 0.0 0.00 0.00 0.00 40 991.3